Location: Newark
(25.1987°N, 100.3705°W)
Time: 05:23:33
(UTC+00:00)

LightSail 2 - Pass Details

Date: 18 April 2020
Orbit: 695 x 719 km, 24.0° (Epoch: 28 May)

Event Time Altitude Azimuth Distance (km) Brightness Sun altitude
Exits shadow 11:48:35 - 246° (WSW) 2,341 7.1 -6.8°
Reaches altitude 10° 11:49:24 10° 239° (WSW) 2,159 7.0 -6.6°
Maximum altitude 11:52:13 15° 205° (SSW) 1,839 6.9 -6.0°
Drops below altitude 10° 11:55:03 10° 171° (S) 2,147 7.6 -5.4°
Sets 11:58:27 0° 148° (SSE) 3,057 8.7 -4.6°
